Hourly Data Report for October 01, 2002

SHERBROOKE A
QUEBEC

45°26'00.000" N
71°41'00.000" W
241.40 m
7028124
71610
YSC

Download Data

Hourly Data (October 2002)
Hourly Data Report for October 1, 2002
TIME
LST
Temp Definition
°C
Dew Point Definition
°C
Rel Hum Definition
%
Precip. Amount Definition
mm

Wind Dir Definition
10's deg

Wind Spd Definition
km/h
Visibility Definition
km
Stn Press Definition
kPa
Hmdx Definition


Wind Chill Definition


Weather Definition


00:00 12.2 11.0 92     0 11.3 98.75      
01:00 13.3 12.1 92   20 4 12.9 98.73      
02:00 13.6 12.1 91   18 4 11.3 98.66      
03:00 11.4 11.0 97     0 4.8 98.65      
04:00 10.4 10.1 98     0 3.9 98.66      
05:00 9.6 9.2 97   21 4 5.6 98.63      
06:00 8.7 8.6 99   25 4 4.8 98.63      
07:00 14.1 12.9 92     0 16.1 98.62     Mainly Clear
08:00 18.7 14.2 75   21 6 16.1 98.62     Mainly Clear
09:00 21.0 15.0 69   20 7 19.3 98.58 25   Mainly Clear
10:00 22.5 15.6 65   23 17 19.3 98.49 27   Mainly Clear
11:00 23.8 16.5 64   24 19 19.3 98.40 29   Mostly Cloudy
12:00 24.9 16.9 61   23 20 19.3 98.32 30   Mostly Cloudy
13:00 26.1 17.2 58   22 19 24.1 98.23 32   Mostly Cloudy
14:00 25.6 17.1 59   24 17 24.1 98.20 31   Mostly Cloudy
15:00 24.9 16.9 61   26 30 24.1 98.23 30   Mostly Cloudy
16:00 23.3 16.7 66   25 17 24.1 98.25 28   Mostly Cloudy
17:00 22.3 16.9 71   26 11 15.0 98.32 28    
18:00 20.7 16.5 77   23 6 12.9 98.37 26    
19:00 19.0 16.3 84   25 6 9.7 98.37      
20:00 18.7 16.4 86   22 7 8.0 98.39      
21:00 18.3 16.2 88   22 9 8.0 98.38      
22:00 18.5 16.2 86   22 9 8.0 98.37      
23:00 18.7 16.1 85   21 9 8.0 98.37      

Notes on Data Quality.

Legend

  • E = Estimated
  • M = Missing
  • NA = Not Available*
  • [empty] = Indicates an unobserved value
Date modified: